EST,Max TemperatureF,Mean TemperatureF,Min TemperatureF,Max Dew PointF,MeanDew PointF,Min DewpointF,Max Humidity, Mean Humidity, Min Humidity, Max Sea Level PressureIn, Mean Sea Level PressureIn, Min Sea Level PressureIn, Max VisibilityMiles, Mean VisibilityMiles, Min VisibilityMiles, Max Wind SpeedMPH, Mean Wind SpeedMPH, Max Gust SpeedMPH,PrecipitationIn, CloudCover, Events, WindDirDegrees
2012-11-1,46,44,39,45,42,39,100,93,81,29.49,29.46,29.44,20,11,2,13,4,20,0.00,8,Rain,147
2012-11-2,41,39,37,39,38,37,100,94,87,29.68,29.56,29.47,20,10,4,10,8,17,0.00,8,Rain,244
2012-11-3,41,39,37,36,34,32,87,80,70,29.91,29.80,29.68,15,15,15,10,6,,0.00,8,Rain,281
2012-11-4,39,36,33,30,26,21,81,68,56,30.06,29.99,29.91,,,,13,7,,0.00,8,,308
2012-11-5,33,30,26,23,18,12,80,58,47,30.17,30.11,30.06,,,,12,7,18,0.00,5,Snow,313
2012-11-6,37,29,21,23,18,12,86,67,48,30.26,30.22,30.17,,,,8,4,,0.00,3,,240
2012-11-7,37,29,21,23,19,16,86,70,45,30.28,30.22,30.14,,,,14,5,21,0.00,4,,45
2012-11-8,42,33,24,27,22,19,86,67,46,30.14,30.08,30.02,,,,10,6,20,0.00,4,,21
2012-11-9,41,30,19,32,26,18,93,80,61,30.12,30.06,30.02,20,20,20,10,5,21,0.00,5,,245
2012-11-10,41,34,26,30,21,16,75,61,42,30.44,30.34,30.14,,,,10,4,,0.00,3,,338
2012-11-11,41,34,28,34,28,21,100,81,64,30.41,30.34,30.29,15,15,15,10,7,18,0.00,5,Rain,45
2012-11-12,62,46,30,52,39,28,100,78,55,30.28,30.12,29.90,20,14,6,15,7,31,0.00,5,Rain,49
2012-11-13,51,40,24,50,30,19,94,72,49,30.52,30.27,29.94,15,12,10,15,12,30,0.00,4,Rain,246
2012-11-14,41,31,21,27,21,19,93,70,42,30.67,30.61,30.53,,,,6,2,,0.00,1,,52
2012-11-15,35,30,23,25,21,19,93,76,60,30.60,30.49,30.40,,,,8,3,,0.00,3,,34
2012-11-16,41,29,17,30,24,16,93,81,61,30.52,30.43,30.39,20,19,15,8,3,,0.00,3,,264
2012-11-17,35,28,21,27,20,18,93,76,52,30.73,30.67,30.54,,,,6,3,,0.00,1,,20
2012-11-18,39,28,17,23,17,14,93,70,39,30.77,30.71,30.63,15,15,15,6,3,,0.00,4,,43
2012-11-19,42,30,17,25,19,14,86,69,45,30.63,30.48,30.30,20,15,12,5,3,,0.00,2,,34
2012-11-20,42,32,21,28,25,19,93,76,57,30.30,30.25,30.20,15,13,10,5,2,,0.00,5,,44
2012-11-21,46,36,26,27,25,21,93,71,43,30.28,30.23,30.21,20,17,15,6,2,,0.00,3,,275
2012-11-22,51,38,24,34,29,21,93,74,44,30.22,30.15,30.00,20,9,2,14,2,,0.00,4,,216
2012-11-23,51,38,26,45,34,25,100,80,47,29.98,29.71,29.56,20,14,5,17,4,29,0.00,7,Rain,168
2012-11-24,42,34,26,36,25,16,87,73,56,29.67,29.57,29.52,20,14,4,16,10,34,0.00,7,Rain-Snow,258
2012-11-25,28,24,21,16,13,12,74,64,51,29.82,29.74,29.68,20,20,20,14,10,24,0.00,4,Snow,267
2012-11-26,30,22,14,16,13,10,93,67,44,30.25,30.04,29.82,20,20,20,12,5,17,0.00,3,,264
2012-11-27,30,21,12,19,15,9,93,78,60,30.33,30.30,30.26,20,20,20,7,3,,0.00,3,Snow,43
2012-11-28,32,26,19,30,24,16,100,87,69,30.28,30.15,30.06,20,9,1,12,5,20,0.00,7,Snow,197
2012-11-29,28,20,10,23,13,1,93,76,54,30.40,30.18,30.06,15,8,1,16,6,22,0.00,6,Snow,269
2012-11-30,14,7,0,1,-1,-6,85,71,57,30.66,30.59,30.43,,,,6,3,,0.00,4,,42